Location: Unspecified
(0.0000°N, 0.0000°E)
Time: 03:41:37
(UTC+01:00)

Ariane H10 - Pass Details

Date: 28 November 2017
Orbit: 390 x 35079 km, 4.3° (Epoch: 13 December)

Event Time Altitude Azimuth Distance (km) Brightness Sun altitude
Rises 00:45:14 0° 268° (W) 19,928 10.7 -68.7°
Reaches altitude 10° 01:21:40 10° 269° (W) 25,438 11.0 -67.2°
Maximum altitude 02:05:44 13° 270° (W) 31,026 11.3 -61.5°
Drops below altitude 10° 03:06:07 10° 271° (W) 36,603 11.6 -50.1°
Sets 04:45:41 0° 272° (W) 40,967 11.7 -28.3°
